| time (UTC) | temp F | wind direction | speed knots | gust knots | rain 1hr in | rain 24hr in | rain mn in | humidity % | barometer mb |
| 20260502234802 | 43 | 20 | 6.1 | 0.0 | 0.00 | 0.00 | 0.00 | 81 | 1022.0 |
| 20260502233302 | 43 | 20 | 6.1 | 0.0 | 0.00 | 0.00 | 0.00 | 81 | 1022.0 |
| 20260502231802 | 43 | 350 | 5.2 | 0.0 | 0.00 | 0.00 | 0.00 | 87 | 1022.0 |
| 20260502230302 | 43 | 350 | 5.2 | 0.0 | 0.00 | 0.00 | 0.00 | 87 | 1022.0 |
| 20260502224802 | 43 | 350 | 7.0 | 0.0 | 0.00 | 0.00 | 0.00 | 93 | 1022.0 |
| 20260502223301 | 43 | 350 | 7.0 | 0.0 | 0.00 | 0.00 | 0.00 | 93 | 1022.0 |
| 20260502221802 | 43 | 330 | 4.3 | 0.0 | 0.00 | 0.00 | 0.00 | 93 | 1023.0 |
| 20260502220302 | 43 | 330 | 4.3 | 0.0 | 0.00 | 0.00 | 0.00 | 93 | 1023.0 |
| 20260502214802 | 43 | 310 | 4.3 | 0.0 | 0.00 | 0.00 | 0.00 | 93 | 1023.0 |
| 20260502213302 | 43 | 310 | 4.3 | 0.0 | 0.00 | 0.00 | 0.00 | 93 | 1023.0 |
| 20260502211802 | 43 | 300 | 2.6 | 0.0 | 0.00 | 0.00 | 0.00 | 93 | 1023.0 |
| 20260502210301 | 43 | 300 | 2.6 | 0.0 | 0.00 | 0.00 | 0.00 | 93 | 1023.0 |
| 20260502204802 | 43 | 280 | 5.2 | 0.0 | 0.00 | 0.00 | 0.00 | 93 | 1023.0 |
| 20260502203302 | 43 | 280 | 5.2 | 0.0 | 0.00 | 0.00 | 0.00 | 93 | 1023.0 |
| 20260502201802 | 43 | 250 | 1.7 | 0.0 | 0.00 | 0.00 | 0.00 | 93 | 1023.0 |
| 20260502200302 | 43 | 250 | 1.7 | 0.0 | 0.00 | 0.00 | 0.00 | 93 | 1023.0 |
| 20260502194802 | 45 | 210 | 1.7 | 0.0 | 0.00 | 0.00 | 0.00 | 87 | 1023.0 |
| 20260502193302 | 45 | 210 | 1.7 | 0.0 | 0.00 | 0.00 | 0.00 | 87 | 1023.0 |
| 20260502191802 | 45 | 170 | 4.3 | 0.0 | 0.00 | 0.00 | 0.00 | 87 | 1023.0 |
| 20260502190302 | 45 | 170 | 4.3 | 0.0 | 0.00 | 0.00 | 0.00 | 87 | 1023.0 |
| 20260502184802 | 45 | 90 | 2.6 | 0.0 | 0.00 | 0.00 | 0.00 | 87 | 1022.0 |
| 20260502183302 | 45 | 90 | 2.6 | 0.0 | 0.00 | 0.00 | 0.00 | 87 | 1022.0 |
| 20260502181802 | 46 | 80 | 5.2 | 0.0 | 0.00 | 0.00 | 0.00 | 82 | 1022.0 |
| 20260502180302 | 46 | 80 | 5.2 | 0.0 | 0.00 | 0.00 | 0.00 | 82 | 1022.0 |
| 20260502170302 | 50 | 360 | 6.1 | 0.0 | 0.00 | 0.00 | 0.00 | 71 | 1021.0 |
| 20260502163302 | 52 | 20 | 7.8 | 0.0 | 0.00 | 0.00 | 0.00 | 50 | 1021.0 |
| 20260502161802 | 54 | 20 | 8.7 | 0.0 | 0.00 | 0.00 | 0.00 | 44 | 1021.0 |
| 20260502160302 | 54 | 20 | 8.7 | 0.0 | 0.00 | 0.00 | 0.00 | 44 | 1021.0 |
| 20260502151802 | 54 | 40 | 11.3 | 0.0 | 0.00 | 0.00 | 0.00 | 51 | 1022.0 |
| 20260502150301 | 54 | 40 | 11.3 | 0.0 | 0.00 | 0.00 | 0.00 | 51 | 1022.0 |
| 20260502130302 | 54 | 70 | 7.8 | 0.0 | 0.00 | 0.00 | 0.00 | 63 | 1022.0 |
| 20260502123302 | 54 | 60 | 8.7 | 0.0 | 0.00 | 0.00 | 0.00 | 58 | 1022.0 |
| 20260502121802 | 52 | 110 | 9.6 | 0.0 | 0.00 | 0.00 | 0.00 | 62 | 1023.0 |
| 20260502120309 | 52 | 110 | 9.6 | 0.0 | 0.00 | 0.00 | 0.00 | 62 | 1023.0 |
| 20260502114802 | 50 | 100 | 17.4 | 0.0 | 0.00 | 0.00 | 0.00 | 62 | 1023.0 |
| 20260502113301 | 50 | 100 | 17.4 | 0.0 | 0.00 | 0.00 | 0.00 | 62 | 1023.0 |
| 20260502111802 | 55 | 80 | 7.0 | 0.0 | 0.00 | 0.00 | 0.00 | 67 | 1023.0 |
| 20260502110302 | 55 | 80 | 7.0 | 0.0 | 0.00 | 0.00 | 0.00 | 67 | 1023.0 |
| 20260502104802 | 50 | 10 | 9.6 | 0.0 | 0.00 | 0.00 | 0.00 | 76 | 1023.0 |
| 20260502103302 | 50 | 10 | 9.6 | 0.0 | 0.00 | 0.00 | 0.00 | 76 | 1023.0 |
| 20260502100302 | 54 | 80 | 9.6 | 0.0 | 0.00 | 0.00 | 0.00 | 58 | 1023.0 |
| 20260502090302 | 57 | 90 | 9.6 | 0.0 | 0.00 | 0.00 | 0.00 | 51 | 1023.0 |
| 20260502070303 | 55 | 60 | 7.0 | 0.0 | 0.00 | 0.00 | 0.00 | 55 | 1023.0 |
| 20260502064802 | 54 | 290 | 2.6 | 0.0 | 0.00 | 0.00 | 0.00 | 67 | 1023.0 |
| 20260502063302 | 54 | 290 | 2.6 | 0.0 | 0.00 | 0.00 | 0.00 | 67 | 1023.0 |
| 20260502061802 | 52 | 1.7 | 0.0 | 0.00 | 0.00 | 0.00 | 62 | 1023.0 | |
| 20260502060302 | 52 | 1.7 | 0.0 | 0.00 | 0.00 | 0.00 | 62 | 1023.0 | |
| 20260502054802 | 48 | 260 | 4.3 | 0.0 | 0.00 | 0.00 | 0.00 | 82 | 1023.0 |
| 20260502053302 | 48 | 260 | 4.3 | 0.0 | 0.00 | 0.00 | 0.00 | 82 | 1023.0 |
| 20260502051802 | 45 | 270 | 5.2 | 0.0 | 0.00 | 0.00 | 0.00 | 93 | 1023.0 |
| 20260502050301 | 45 | 270 | 5.2 | 0.0 | 0.00 | 0.00 | 0.00 | 93 | 1023.0 |
| 20260502044802 | 45 | 1.7 | 0.0 | 0.00 | 0.00 | 0.00 | 87 | 1023.0 | |
| 20260502043302 | 45 | 1.7 | 0.0 | 0.00 | 0.00 | 0.00 | 87 | 1023.0 | |
| 20260502041802 | 45 | 1.7 | 0.0 | 0.00 | 0.00 | 0.00 | 87 | 1023.0 | |
| 20260502040302 | 45 | 1.7 | 0.0 | 0.00 | 0.00 | 0.00 | 87 | 1023.0 | |
| 20260502034915 | 43 | 320 | 4.3 | 0.0 | 0.00 | 0.00 | 0.00 | 93 | 1023.0 |
| 20260502033301 | 43 | 320 | 4.3 | 0.0 | 0.00 | 0.00 | 0.00 | 93 | 1023.0 |
| 20260502031802 | 43 | 300 | 4.3 | 0.0 | 0.00 | 0.00 | 0.00 | 93 | 1023.0 |
| 20260502030302 | 43 | 300 | 4.3 | 0.0 | 0.00 | 0.00 | 0.00 | 93 | 1023.0 |
| 20260502024802 | 43 | 300 | 5.2 | 0.0 | 0.00 | 0.00 | 0.00 | 87 | 1023.0 |
| 20260502023302 | 43 | 300 | 5.2 | 0.0 | 0.00 | 0.00 | 0.00 | 87 | 1023.0 |
| 20260502021802 | 43 | 290 | 6.1 | 0.0 | 0.00 | 0.00 | 0.00 | 87 | 1023.0 |
| 20260502020302 | 43 | 290 | 6.1 | 0.0 | 0.00 | 0.00 | 0.00 | 87 | 1023.0 |
| 20260502014802 | 43 | 270 | 7.0 | 0.0 | 0.00 | 0.00 | 0.00 | 81 | 1023.0 |
| 20260502013302 | 43 | 270 | 7.0 | 0.0 | 0.00 | 0.00 | 0.00 | 81 | 1023.0 |
| 20260502011802 | 43 | 270 | 8.7 | 0.0 | 0.00 | 0.00 | 0.00 | 81 | 1023.0 |
| 20260502010302 | 43 | 270 | 8.7 | 0.0 | 0.00 | 0.00 | 0.00 | 81 | 1023.0 |
| 20260502004801 | 45 | 270 | 8.7 | 0.0 | 0.00 | 0.00 | 0.00 | 76 | 1023.0 |
| 20260502003302 | 45 | 270 | 8.7 | 0.0 | 0.00 | 0.00 | 0.00 | 76 | 1023.0 |
| 20260502001801 | 45 | 270 | 7.8 | 0.0 | 0.00 | 0.00 | 0.00 | 71 | 1024.0 |
| 20260502000302 | 45 | 270 | 7.8 | 0.0 | 0.00 | 0.00 | 0.00 | 71 | 1024.0 |